Location: Carrières
(48.9495°N, 2.0407°E)
Time: 18:13:29
(UTC+00:00)

Altair - Pass Details

Date: 30 April 2024
Orbit: 1502 x 1682 km, 47.2° (Epoch: 21 May)

Event Time Altitude Azimuth Distance (km) Brightness Sun altitude
Rises 19:24:59 0° 273° (W) 4,928 11.6 -3.5°
Reaches altitude 10° 19:28:10 10° 273° (W) 3,929 10.9 -4.0°
Maximum altitude 19:38:15 80° 189° (S) 1,663 7.7 -5.4°
Drops below altitude 10° 19:47:59 10° 104° (ESE) 3,801 9.0 -6.8°
Enters shadow 19:49:15 - 104° (ESE) 4,198 9.2 -6.9°
